Kuiper-00169

operational
NORAD ID: 65782 Int'l Des: 2025-217 Owner: KUIP Country: US Constellation: kuiper
LEOCIRCULAR

About Kuiper-00169

Description loading...

Live Position

Loading 3D Globe...

Upcoming Passes

Altitude History

Altitude vs Time

uPlot chart will show altitude changes over time

Two-Line Element Set

1 65782U 25217W 26071.15989032 .00005601 00000-0 76382-3 0 9999
2 65782 51.9019 22.1906 0000891 97.9225 262.1838 14.79890548 25380
Epoch: Mar 12, 2026 • Age: 41 hours

Current Status

Altitude 629.8 km
Velocity 7.55 km/s
Sub-Earth Point 20.08°N, 37.94°W
Launch Date Sep 25, 2025
Age 0.4 years
Type internet

Technical Details

Classification Payload
Mass 490.00 kg
Dry Mass 490.00 kg
Total Mass 490.00 kg
Length 1.80 m
Diameter 0.70 m
Span 5.00 m
Shape Box + 2 pan
Manufacturer KUIP
Bus Type Kuiper
Phase Status In Orbit
Owner/State KUIP/US

Large Constellations

Loading constellations...